Address 0x8791c9057566af6f55f18fdbea4465e1b1ee2f8e 10

 
Txn Hash Method
Block
From
To
Value [Txn Fee]
0xc9ba061d0de36d7ae71ae33346ba35f7c6e9e728102b215fdaa9c2986074485fSet Approval For...401128242022-11-22 2:15:2475 days 12 hrs ago0x8791c9057566af6f55f18fdbea4465e1b1ee2f8eOUT 0x895a6f444be4ba9d124f61df736605792b35d66b0 ETH0.00001879
0x239a9bbe5a5092b00a988cc3ee050d61bea0aec86826e502426d447949305cb5Unstake NF Ts401125662022-11-22 2:13:5675 days 12 hrs ago0x8791c9057566af6f55f18fdbea4465e1b1ee2f8eOUT 0x2069cb988d5b17bab70d73076d6f1a9757a4f9630 ETH0.00033812
0x869d05e8cb53f350bc2dc0119ff75f5917b9107bbea384d12b7ddc8fc66af1e9Claim357723312022-11-06 16:21:1090 days 22 hrs ago0x8791c9057566af6f55f18fdbea4465e1b1ee2f8eOUT Galxe: NFT Space Station0 ETH0.00005038
0x22e55cfe15a498b11de774340d295139dc7a280b626e0dff20761f07cc14168bSwap355300402022-11-05 18:22:2191 days 20 hrs ago0x8791c9057566af6f55f18fdbea4465e1b1ee2f8eOUT Balancer: Vault0.005 ETH0.00004635
0x3dccadbeedd7a7e907b3a7d8dd7cd45ade8a1b4d41871d9af938f32866d3cba2Multicall355297882022-11-05 18:21:0491 days 20 hrs ago0x8791c9057566af6f55f18fdbea4465e1b1ee2f8eOUT Uniswap V3: Positions NFT0.010005260341562 ETH0.00008453
0x7ae8b4da42716e6dd18e03675e0262c372582d9855ba296033cbbc759cc43fb2Approve355296802022-11-05 18:20:3391 days 20 hrs ago0x8791c9057566af6f55f18fdbea4465e1b1ee2f8eOUT 0xff970a61a04b1ca14834a43f5de4533ebddb5cc80 ETH0.0000218
0xeaf81e50c98e47abb50f418238b1e71bb0c3c27067cbeb67737457261a13a0a1Multicall355295312022-11-05 18:19:4791 days 20 hrs ago0x8791c9057566af6f55f18fdbea4465e1b1ee2f8eOUT Uniswap V3: Router 20.01 ETH0.00005008
0x43dd8ee8fd3bc9348415b00e73b0e9692b068cd5481f1816cd2a4bd103c8d44bMint And Stake G...336274602022-10-29 13:49:1199 days 1 hr ago0x8791c9057566af6f55f18fdbea4465e1b1ee2f8eOUT GMX: Reward Router0.02 ETH0.00016045
0xfda3375991791bc6b8d60e57772ab3fbe02d3f97c2715047f7ff64b357804a0dSubmit Close Ord...327430322022-10-26 12:22:07102 days 2 hrs ago0x8791c9057566af6f55f18fdbea4465e1b1ee2f8eOUT0xbed32937d8a5d1421241f52809908f1a17d75bdb0 ETH0.00002112
0xad808fca15c71cbdfffe40f29f77f36e48eac8d22bc85e1589972dd242b0df27Submit Order327270372022-10-26 11:09:11102 days 3 hrs ago0x8791c9057566af6f55f18fdbea4465e1b1ee2f8eOUT0xbed32937d8a5d1421241f52809908f1a17d75bdb0.1 ETH0.00003017
0x21fb31ec8c9d44c9170bdae1c33f5f6cef3516416510ff17bca97859739786b5Submit Close Ord...327190192022-10-26 10:32:50102 days 4 hrs ago0x8791c9057566af6f55f18fdbea4465e1b1ee2f8eOUT0xbed32937d8a5d1421241f52809908f1a17d75bdb0 ETH0.00002693
0x3947714097186ae63faf3e49ccc5010ae1995d863279c8139063dae3bb0bc8c6Submit Order327013632022-10-26 9:13:51102 days 5 hrs ago0x8791c9057566af6f55f18fdbea4465e1b1ee2f8eOUT0xbed32937d8a5d1421241f52809908f1a17d75bdb0.1 ETH0.00004393
0x07c4a0376cb8849a787eb271426f95512b8fcc7f77103f89e2807285325318a8Submit Close Ord...326989632022-10-26 9:03:35102 days 5 hrs ago0x8791c9057566af6f55f18fdbea4465e1b1ee2f8eOUT0xbed32937d8a5d1421241f52809908f1a17d75bdb0 ETH0.00003512
0xe2cb9d68aa98026f8c1290ee1b82890c843e11299f924d9ae5f4d03932d70886Submit Order326936542022-10-26 8:40:17102 days 6 hrs ago0x8791c9057566af6f55f18fdbea4465e1b1ee2f8eOUT0xbed32937d8a5d1421241f52809908f1a17d75bdb0.1 ETH0.00002941
0x713ad3ed444a66df42c31b53c3255201f666b097b3bdf246102eef9c94fcff04Submit Close Ord...326876622022-10-26 8:13:55102 days 6 hrs ago0x8791c9057566af6f55f18fdbea4465e1b1ee2f8eOUT0xbed32937d8a5d1421241f52809908f1a17d75bdb0 ETH0.00002318
0x08bd9eebd5afc86f982b968907daee393de5088fe6b5b51daae740ee8dbf650cSubmit Order326784332022-10-26 7:32:20102 days 7 hrs ago0x8791c9057566af6f55f18fdbea4465e1b1ee2f8eOUT0xbed32937d8a5d1421241f52809908f1a17d75bdb0.1 ETH0.00002494
0xd8b12a966880ef38f3035bada39fb1a2e70fef3cb09b52ad792f22abc6e70387Submit Close Ord...326771842022-10-26 7:26:58102 days 7 hrs ago0x8791c9057566af6f55f18fdbea4465e1b1ee2f8eOUT0xbed32937d8a5d1421241f52809908f1a17d75bdb0 ETH0.00002071
0xf2f38d54aa59721fb3d573670e9866d89c20b774851df269d53e46ac052421f3Submit Order326684352022-10-26 6:46:52102 days 8 hrs ago0x8791c9057566af6f55f18fdbea4465e1b1ee2f8eOUT0xbed32937d8a5d1421241f52809908f1a17d75bdb0.08 ETH0.00002561
0x40c6d3d91e66b7298690a0d74cd3b202ce6916f5d150b0fec9fad1c3e1117ea2Submit Close Ord...326640032022-10-26 6:26:09102 days 8 hrs ago0x8791c9057566af6f55f18fdbea4465e1b1ee2f8eOUT0xbed32937d8a5d1421241f52809908f1a17d75bdb0 ETH0.00002068
0xd9021c61ee8797eb58a313637db22ce57dadd4f08ab715ed2f21975d86ce74c8Submit Order326614592022-10-26 6:13:41102 days 8 hrs ago0x8791c9057566af6f55f18fdbea4465e1b1ee2f8eOUT0xbed32937d8a5d1421241f52809908f1a17d75bdb0.08 ETH0.00002495
0x3b99de560ee64037e8bdcbee737322b11b44511259eb088db781bed2ab8b9954Submit Close Ord...325614092022-10-25 20:29:17102 days 18 hrs ago0x8791c9057566af6f55f18fdbea4465e1b1ee2f8eOUT0xbed32937d8a5d1421241f52809908f1a17d75bdb0 ETH0.00006303
0x4fabfa6604f36b657f4f1b294cbadcced94e93ecdf1e2db7eddedb1dca65e44eSubmit Order325590662022-10-25 20:17:54102 days 18 hrs ago0x8791c9057566af6f55f18fdbea4465e1b1ee2f8eOUT0xbed32937d8a5d1421241f52809908f1a17d75bdb0.06 ETH0.00008028
0x4a043026d17bee662454e8645e2eb28a76ff18f8bd39daea12939d4ac8b572cfSubmit Close Ord...325415502022-10-25 18:49:19102 days 20 hrs ago0x8791c9057566af6f55f18fdbea4465e1b1ee2f8eOUT0xbed32937d8a5d1421241f52809908f1a17d75bdb0 ETH0.00006118
0xb5190bb1287ef47c066dd8102faca3d36846346c063c85f705f4fd9b17dbecd0Submit Order325378282022-10-25 18:32:02102 days 20 hrs ago0x8791c9057566af6f55f18fdbea4465e1b1ee2f8eOUT0xbed32937d8a5d1421241f52809908f1a17d75bdb0.05 ETH0.00008501
0xc50544ab49a2fd204c0ef0d9e39d1ce852c6c410f5bc10932a1960e108abd097Submit Close Ord...325375922022-10-25 18:31:01102 days 20 hrs ago0x8791c9057566af6f55f18fdbea4465e1b1ee2f8eOUT0xbed32937d8a5d1421241f52809908f1a17d75bdb0 ETH0.0000713
[ Download CSV Export 
Latest 25 internal transaction
Parent Txn Hash Block From To Value
0x3dccadbeedd7a7e907b3a7d8dd7cd45ade8a1b4d41871d9af938f32866d3cba2355297882022-11-05 18:21:0491 days 20 hrs ago Uniswap V3: Positions NFT0x8791c9057566af6f55f18fdbea4465e1b1ee2f8e0.000000000000005894 ETH
0xbafd5ddab270f5ec08153ad821d11fe6b18d53ac6a3c4119830bebf398705576328953172022-10-27 0:59:52101 days 13 hrs ago 0x47ef85dfb775ace0934fba9eed09d22e6ec0cc080x8791c9057566af6f55f18fdbea4465e1b1ee2f8e0.04 ETH
0x5b64c9e294e2a39ee50be2ba419471dff025333bce543f492bff472a351e4b4e327190422022-10-26 10:32:56102 days 4 hrs ago 0xbed32937d8a5d1421241f52809908f1a17d75bdb0x8791c9057566af6f55f18fdbea4465e1b1ee2f8e0.1 ETH
0x5b64c9e294e2a39ee50be2ba419471dff025333bce543f492bff472a351e4b4e327190422022-10-26 10:32:56102 days 4 hrs ago CAP Finance: ETH Pool0x8791c9057566af6f55f18fdbea4465e1b1ee2f8e0.00114436 ETH
0xfdf6f81a2c0c4c1ad5c2bd47c28b1e83637589b5be7efed25aeaabcde5bcd808326989962022-10-26 9:03:43102 days 5 hrs ago 0xbed32937d8a5d1421241f52809908f1a17d75bdb0x8791c9057566af6f55f18fdbea4465e1b1ee2f8e0.09567722 ETH
0xae9041a1bcce943a62931b7c58a6ec71c6200610dcfd5d22ae0cb4fb06f05a5f326876922022-10-26 8:14:04102 days 6 hrs ago 0xbed32937d8a5d1421241f52809908f1a17d75bdb0x8791c9057566af6f55f18fdbea4465e1b1ee2f8e0.1 ETH
0xae9041a1bcce943a62931b7c58a6ec71c6200610dcfd5d22ae0cb4fb06f05a5f326876922022-10-26 8:14:04102 days 6 hrs ago CAP Finance: ETH Pool0x8791c9057566af6f55f18fdbea4465e1b1ee2f8e0.00115311 ETH
0xa54ae2f7f173308c0c52648e62a3454c48a0456798972876233884eb0c66193d326772192022-10-26 7:27:07102 days 7 hrs ago 0xbed32937d8a5d1421241f52809908f1a17d75bdb0x8791c9057566af6f55f18fdbea4465e1b1ee2f8e0.08 ETH
0xa54ae2f7f173308c0c52648e62a3454c48a0456798972876233884eb0c66193d326772192022-10-26 7:27:07102 days 7 hrs ago CAP Finance: ETH Pool0x8791c9057566af6f55f18fdbea4465e1b1ee2f8e0.02153643 ETH
0xf7e611eea1f34a0502b8fd58cabb6fd9eca4a2dad450a559e70af11c63d434d0326640322022-10-26 6:26:16102 days 8 hrs ago 0xbed32937d8a5d1421241f52809908f1a17d75bdb0x8791c9057566af6f55f18fdbea4465e1b1ee2f8e0.08 ETH
0xf7e611eea1f34a0502b8fd58cabb6fd9eca4a2dad450a559e70af11c63d434d0326640322022-10-26 6:26:16102 days 8 hrs ago CAP Finance: ETH Pool0x8791c9057566af6f55f18fdbea4465e1b1ee2f8e0.00311564 ETH
0x88d842f45a41c5d53b64f80f8a1a5d51b76f847e3a0c5139642ab83d6bd1aff9325614272022-10-25 20:29:23102 days 18 hrs ago 0xbed32937d8a5d1421241f52809908f1a17d75bdb0x8791c9057566af6f55f18fdbea4465e1b1ee2f8e0.06 ETH
0x88d842f45a41c5d53b64f80f8a1a5d51b76f847e3a0c5139642ab83d6bd1aff9325614272022-10-25 20:29:23102 days 18 hrs ago CAP Finance: ETH Pool0x8791c9057566af6f55f18fdbea4465e1b1ee2f8e0.01309482 ETH
0x323c81d211c9c0df0c85d7935dc35d613fe8932b7239a3091c1f814d7683971d325415842022-10-25 18:49:28102 days 20 hrs ago 0xbed32937d8a5d1421241f52809908f1a17d75bdb0x8791c9057566af6f55f18fdbea4465e1b1ee2f8e0.05 ETH
0x323c81d211c9c0df0c85d7935dc35d613fe8932b7239a3091c1f814d7683971d325415842022-10-25 18:49:28102 days 20 hrs ago CAP Finance: ETH Pool0x8791c9057566af6f55f18fdbea4465e1b1ee2f8e0.01256164 ETH
0xf18490088db75286fa4490aaa2ad8c4bcd561bb600ca77bdc8a63163c7aa1854325376172022-10-25 18:31:07102 days 20 hrs ago 0xbed32937d8a5d1421241f52809908f1a17d75bdb0x8791c9057566af6f55f18fdbea4465e1b1ee2f8e0.03 ETH
0xf18490088db75286fa4490aaa2ad8c4bcd561bb600ca77bdc8a63163c7aa1854325376172022-10-25 18:31:07102 days 20 hrs ago CAP Finance: ETH Pool0x8791c9057566af6f55f18fdbea4465e1b1ee2f8e0.02286942 ETH
0x9ccc3724b6037005f1ad9733985c73100b601069981ba1d59ac80c01dcb41ddb308573832022-10-18 22:04:28109 days 16 hrs ago 0xbed32937d8a5d1421241f52809908f1a17d75bdb0x8791c9057566af6f55f18fdbea4465e1b1ee2f8e0.02793288 ETH
0x0cd4bb5468fda203af5f8db72e1d48524f345a03bde901ca86b40ec3764b2386308206252022-10-18 16:11:17109 days 22 hrs ago 0xbed32937d8a5d1421241f52809908f1a17d75bdb0x8791c9057566af6f55f18fdbea4465e1b1ee2f8e0.02 ETH
0x0cd4bb5468fda203af5f8db72e1d48524f345a03bde901ca86b40ec3764b2386308206252022-10-18 16:11:17109 days 22 hrs ago CAP Finance: ETH Pool0x8791c9057566af6f55f18fdbea4465e1b1ee2f8e0.00044173 ETH
0x7c6fe6e4ff409dc0e2f48dc2a45b056b9f4ceb0fbb3e44d93a5c916b43081e4a296150962022-10-11 20:42:58116 days 18 hrs ago Across Protocol: Arbitrum Spoke Pool V20x8791c9057566af6f55f18fdbea4465e1b1ee2f8e0.011132478543569098 ETH
0x9e88e6e43651f35033a20aacd94d2ce943aeaa45086859ed11c02cf62bd4e1fd276328422022-09-30 15:59:29127 days 22 hrs ago 0x: Exchange Proxy Flash Wallet0x8791c9057566af6f55f18fdbea4465e1b1ee2f8e0.226859696332255344 ETH
0x261425e4c979b4da469970e020fe1975c3dd9f7861723feeeef770af22419b31193185642022-08-03 21:57:13185 days 16 hrs ago Hop Protocol: ETH Wrapper0x8791c9057566af6f55f18fdbea4465e1b1ee2f8e0.049730572030203825 ETH
0xd670e584351bd19edebc685a22dbb2c76c079b55df22a01937dad26e38069a02140076392022-06-07 20:03:51242 days 18 hrs ago 0xbed32937d8a5d1421241f52809908f1a17d75bdb0x8791c9057566af6f55f18fdbea4465e1b1ee2f8e1.36 ETH
0xd670e584351bd19edebc685a22dbb2c76c079b55df22a01937dad26e38069a02140076392022-06-07 20:03:51242 days 18 hrs ago CAP Finance: ETH Pool0x8791c9057566af6f55f18fdbea4465e1b1ee2f8e0.16372286 ETH
[ Download CSV Export 
Loading

Contract Name:
0 ETH

Compiler Version
0

Optimization Enabled:
0 ETH

Other Settings:
-NA-
Block Transaction Gas Used Reward
Age Block Fee Address BC Fee Address Voting Power Jailed Incoming
Block Uncle Number Difficulty Gas Used Reward
Loading
Make sure to use the "Vote Down" button for any spammy posts, and the "Vote Up" for interesting conversations.